User: anonymous   Login
Location: Albany
(35.0000°S, 118.0000°E)
Time: 18:19:20
(UTC-04:00)
Language:

CZ-4B R/B - Orbit

View from above orbital plane
View from above orbital plane
View from above satellite
View from above satellite

Ground track
Ground track

The orbit data is extracted from the following two-line orbital elements,

1 33410U 08053C   16270.47554239  .00001548  00000-0  11803-3 0  9996
2 33410  97.6933 238.1195 0121183 356.9413   3.1054 14.97908262431308
Epoch (UTC): 26 September 2016 11:24:46
Eccentricity: 0.0121183
inclination: 97.6933°
perigee height: 489 km
apogee height: 657 km
right ascension of ascending node: 238.1195°
argument of perigee: 356.9413°
revolutions per day: 14.97908262
mean anomaly at epoch: 3.1054°
orbit number at epoch: 43130

The dashed part of the orbit path shows where the satellite is in the earth's shadow,  

DLR